Regional Weather Roundup
Issued by NWS

Home | Current Version | Previous Version | Graphics & Text | Print | Product List | Glossary On
Versions: 1 2 3 4 5 6 7 8 9 10 11 12 13 14 15 16 17 18 19 20 21 22 23 24 25 26 27 28 29 30 31 32 33 34 35 36 37 38 39 40 41 42 43 44 45 46 47 48 49 50
000
ASUS43 KLSX 282107
RWRMO

WEATHER SUMMARY FOR MISSOURI
NATIONAL WEATHER SERVICE SPRINGFIELD MO
300 PM CST SUN DEC 28 2014

NOTE: "FAIR" INDICATES FEW OR NO CLOUDS BELOW 12,000 FEET WITH NO
       SIGNIFICANT WEATHER AND/OR OBSTRUCTIONS TO VISIBILITY.
       CURRENT SKY AND/OR WEATHER CONDITIONS ARE NOT AVAILABLE FOR
       CHILLICOTHE AND FARMINGTON.

MOZ001>031-035>038-043-044-053-054-282200-
...NORTHERN AND WESTERN MISSOURI...

CITY           SKY/WX    TMP DP  RH WIND       PRES   REMARKS
KANSAS CTY INT MOSUNNY   39  17  41 SW7       30.12F
KANSAS C DTWN  SUNNY     41  18  39 S6        30.14F
LEE`S SUMMIT   SUNNY     39  18  42 S3        30.14F
ST JOSEPH      SUNNY     40  17  39 S8        30.14F
CHILLICOTHE      N/A     40  21  46 CALM      30.16F
KIRKSVILLE     SUNNY     37  18  46 W5        30.15F

$$
MOZ066>068-077>081-088>096-101>105-282200-
...SOUTHWEST MISSOURI...

CITY           SKY/WX    TMP DP  RH WIND       PRES   REMARKS
SPRINGFIELD    SUNNY     38  23  55 CALM      30.15S
JOPLIN         SUNNY     38  23  55 CALM      30.17F

$$
MOZ032>034-039>042-045>050-055>058-069>072-282200-
...CENTRAL MISSOURI...

CITY           SKY/WX    TMP DP  RH WIND       PRES   REMARKS
COLUMBIA       SUNNY     37  23  56 SW5       30.17F
JEFFERSON CITY SUNNY     39  24  55 CALM      30.19F
ROLLA          SUNNY     36  25  64 N5        30.15S
SEDALIA        SUNNY     38  18  44 CALM      30.17F
WHITEMAN AFB   SUNNY     32  19  59 W6        30.21F WCI  26
WARRENSBURG    SUNNY     37  19  48 SE3       30.17S
OSAGE BEACH    SUNNY     37  23  56 CALM      30.17F

$$
MOZ051-052-059>065-282200-
...EAST CENTRAL MISSOURI...

CITY           SKY/WX    TMP DP  RH WIND       PRES   REMARKS
ST LOUIS INTL  MOSUNNY   37  23  56 W3        30.21S
SPIRIT OF STL  MOSUNNY   36  25  64 CALM      30.20S
ST CHARLES     MOSUNNY   35  24  64 W3        30.21R

$$
MOZ072>076-082>087-097>100-106>115-282200-
...SOUTH CENTRAL AND SOUTHEAST MISSOURI...

CITY           SKY/WX    TMP DP  RH WIND       PRES   REMARKS
CAPE GIRARDEAU CLOUDY    36  29  75 N8        30.20R WCI  30
FARMINGTON     CLOUDY    32  27  80 SE3       30.19S
POPLAR BLUFF   CLOUDY    36  28  73 N6        30.20R
WEST PLAINS    MOSUNNY   35  25  66 CALM      30.16R

$$


USA.gov is the U.S. government's official web portal to all federal, state and local government web resources and services.